Regional Weather Roundup
Issued by NWS

Home | Current Version | Previous Version | Graphics & Text | Print | Product List | Glossary Off
Versions: 1 2 3 4 5 6 7 8 9 10 11 12 13 14 15 16 17 18 19 20 21 22 23 24 25 26 27 28 29 30 31 32 33 34 35 36 37 38 39 40 41 42 43 44 45 46 47 48 49 50

000
ASUS43 KOAX 230510
RWRNE

WEATHER ROUNDUP FOR NEBRASKA
NATIONAL WEATHER SERVICE OMAHA NE
1100 PM CST SAT NOV 22 2014

NOTES: SATELLITE DATA IS BEING USED TO AUGMENT CLOUD COVER ABOVE
       12000 FEET.
       "FAIR" INDICATES FEW OR NO CLOUDS BELOW 12,000 FEET WITH NO
       SIGNIFICANT WEATHER AND/OR OBSTRUCTIONS TO VISIBILITY.

  * THESE STATIONS DO NOT REPORT WEATHER SUCH AS RAIN...SNOW OR FOG.

NEZ001>004-019>022-054>056-230600-
NEBRASKA PANHANDLE

CITY           SKY/WX    TMP DP  RH WIND       PRES   REMARKS
SCOTTSBLUFF    PTCLDY    43  29  57 NW10      29.51S
ALLIANCE       PTCLDY    35  28  75 CALM      29.50R
CHADRON        MOCLDY    37  30  75 W9        29.48R WCI  30
KIMBALL        MOCLDY    46  26  44 W8        29.53S
SIDNEY         MOCLDY    36  23  59 NW10      29.54R WCI  28
$$

NEZ057>060-069>072-079>082-230600-
SOUTHWEST NEBRASKA

CITY           SKY/WX    TMP DP  RH WIND       PRES   REMARKS
NORTH PLATTE   CLOUDY    39  26  59 E6        29.50F WCI  35
IMPERIAL       CLOUDY    41  17  38 E6        29.49F
LEXINGTON      CLOUDY    49  32  52 NW5       29.55R
MCCOOK         MOCLDY    45  25  45 W9        29.53R
OGALLALA       CLOUDY    40  22  48 S3        29.50F
$$

NEZ005>010-023>029-035>040-094-230600-
NORTH CENTRAL NEBRASKA

CITY           SKY/WX    TMP DP  RH WIND       PRES   REMARKS
VALENTINE      CLOUDY    42  38  85 S9        29.44F
AINSWORTH      CLOUDY    47  37  68 SW6       29.47F
BROKEN BOW     CLOUDY    46  31  55 N3        29.51R
O`NEILL        CLOUDY    51  36  57 SW8       29.47F
ORD            CLOUDY    41  32  70 SE7       29.51R
THEDFORD       CLOUDY    49  33  54 S6        29.47F
$$

NEZ041-046>049-061>064-073>077-083>087-230600-
SOUTH CENTRAL NEBRASKA

CITY           SKY/WX    TMP DP  RH WIND       PRES   REMARKS
AURORA         CLOUDY    55  53  94 S16       29.53F
HASTINGS       CLOUDY    55  50  83 S10G18    29.53F
HEBRON         CLOUDY    58  51  78 S15       29.56F
HOLDREGE       CLOUDY    48  45  88 S8        29.51F
KEARNEY *      CLOUDY    52  46  82 S15       29.54F
YORK           CLOUDY    54  50  87 S14       29.55S
$$

NEZ011>018-030>034-042>045-230600-
NORTHEAST NEBRASKA

CITY           SKY/WX    TMP DP  RH WIND       PRES   REMARKS
NORFOLK        MOCLDY    51  49  92 S22       29.48F
ALBION         MOCLDY    43  40  87 SE5       29.52S
BLAIR          CLOUDY    56  52  88 S17       29.56F
COLUMBUS *     CLOUDY    52  48  87 SW10      29.55S
FREMONT        PTCLDY    56  52  86 S14G20    29.55S
TEKAMAH        PTCLDY    52  49  89 S14       29.54F
WAYNE          CLOUDY    53  49  89 S16G24    29.51F
$$

NEZ050>053-065>068-078-088>093-230600-
SOUTHEAST NEBRASKA

CITY           SKY/WX    TMP DP  RH WIND       PRES   REMARKS
LINCOLN        PTCLDY    55  51  86 S14       29.57S
OMAHA EPPLEY   CLOUDY    55  53  93 S14       29.59S
BEATRICE       CLOUDY    55  52  89 S13       29.58F
FALLS CITY     CLOUDY    55  52  89 S9        29.64F
NEBRASKA CITY  CLOUDY    54  54  99 S15G21    29.62F FOG
PLATTSMOUTH    CLOUDY    55  52  90 S18       29.60S FOG
$$

NEZ044-045-051>053-067-230600-
OMAHA AREA

CITY           SKY/WX    TMP DP  RH WIND       PRES   REMARKS
OMAHA EPPLEY   CLOUDY    55  53  93 S14       29.59S
BLAIR          CLOUDY    56  52  88 S17       29.56F
FREMONT        PTCLDY    56  52  86 S14G20    29.55S
MILLARD        CLOUDY    56  53  89 S10       29.58S
OFFUTT AFB     CLOUDY    55  53  93 S12       29.59F
PLATTSMOUTH    CLOUDY    55  52  90 S18       29.60S FOG
WAHOO          CLOUDY    56  51  83 S12       29.56S
$$


USA.gov is the U.S. government's official web portal to all federal, state and local government web resources and services.